CW9259 Weather Reports


Display with metric or nautical units.
time (UTC)temp
F
wind
direction
speed
MPH
gust
MPH
rain 1hr
in
rain 24hr
in
rain mn
in
humidity
%
barometer
mb
20260508013131 53 345 0.0 0.0 0.00 0.24 0.00 96 1011.1
20260508011603 53 345 0.0 0.0 0.00 0.24 0.00 96 1011.3
20260508010129 53 345 0.0 0.0 0.00 0.24 0.00 96 1011.2
20260508004601 53 345 0.0 0.0 0.00 0.27 0.00 95 1011.3
20260508003136 53 345 0.0 0.0 0.00 0.27 0.00 96 1011.2
20260508001604 53 349 0.0 0.0 0.00 0.27 0.00 96 1011.4
20260508000002 53 279 0.0 0.0 0.00 0.27 0.00 95 1011.5
20260507233113 53 279 1.0 2.0 0.00 0.28 0.00 94 1011.6
20260507231602 53 279 0.0 1.0 0.00 0.28 0.00 94 1011.7
20260507230005 53 279 0.0 3.0 0.00 0.28 0.00 94 1011.5
20260507224606 53 284 1.0 2.0 0.00 0.30 0.28 93 1011.5
20260507221559 53 283 1.0 3.0 0.00 0.30 0.28 92 1011.5
20260507220001 54 306 0.0 2.0 0.00 0.30 0.28 92 1011.4
20260507214600 54 309 0.0 3.0 0.00 0.30 0.28 91 1011.3
20260507213118 54 317 1.0 3.0 0.00 0.30 0.28 91 1011.3
20260507211600 55 274 0.0 4.0 0.00 0.30 0.28 90 1011.3
20260507210003 55 268 2.0 4.0 0.00 0.30 0.28 90 1011.3
20260507204607 55 288 0.0 5.0 0.02 0.30 0.28 90 1011.3
20260507203125 56 294 3.0 5.0 0.11 0.30 0.28 89 1011.2
20260507201603 56 250 1.0 3.0 0.11 0.30 0.28 87 1011.0
20260507200006 57 245 1.0 4.0 0.11 0.30 0.28 85 1011.0
20260507194700 58 244 1.0 6.0 0.09 0.28 0.26 82 1010.7
20260507193006 60 263 3.0 7.0 0.00 0.19 0.17 74 1010.4
20260507191608 61 24 1.0 2.0 0.00 0.19 0.17 75 1010.2
20260507190002 61 24 1.0 2.0 0.00 0.19 0.17 73 1009.8
20260507184600 62 24 1.0 2.0 0.00 0.19 0.17 74 1009.8
20260507181600 63 24 1.0 2.0 0.00 0.19 0.17 71 1009.5
20260507180001 64 24 2.0 3.0 0.00 0.19 0.17 69 1009.5
20260507174609 64 24 1.0 3.0 0.00 0.19 0.17 67 1009.4
20260507173135 65 24 2.0 3.0 0.00 0.19 0.17 66 1009.2
20260507171608 66 115 0.0 2.0 0.00 0.19 0.17 68 1009.2
20260507170001 67 115 1.0 3.0 0.00 0.19 0.17 63 1009.1
20260507164608 69 109 1.0 6.0 0.00 0.19 0.17 54 1009.1
20260507163140 71 107 3.0 6.0 0.00 0.19 0.17 50 1009.1
20260507161616 71 236 0.0 4.0 0.00 0.19 0.17 53 1009.1
20260507160137 69 194 0.0 3.0 0.00 0.19 0.17 53 1009.0
20260507154600 69 327.0 255.0 0.00 0.19 0.17 54 1009.0
20260507153119 71 327.0 255.0 0.00 0.19 0.17 49 1009.0
20260507151601 70 327.0 255.0 0.00 0.19 0.17 54 1009.0
20260507150129 69 327.0 255.0 0.00 0.19 0.17 53 1009.2
20260507144606 70 327.0 255.0 0.00 0.31 0.17 52 1009.1
20260507143117 69 327.0 255.0 0.00 0.31 0.17 57 1009.4
20260507141620 68 327.0 255.0 0.00 0.31 0.17 59 1009.4
20260507140132 67 327.0 255.0 0.00 0.31 0.17 56 1009.6
20260507134609 66 327.0 255.0 0.00 0.35 0.17 59 1009.6
20260507133122 67 327.0 255.0 0.00 0.35 0.17 59 1009.8
20260507131603 68 327.0 255.0 0.00 0.35 0.17 56 1009.9
20260507130124 66 327.0 255.0 0.00 0.35 0.17 59 1010.1
20260507124606 67 327.0 255.0 0.00 0.39 0.17 60 1010.1
20260507123121 67 327.0 255.0 0.00 0.39 0.17 58 1010.3
20260507121601 67 327.0 255.0 0.00 0.39 0.17 60 1010.3
20260507114604 65 175 4.0 10.0 0.00 0.43 0.17 63 1010.6
20260507113138 66 95 4.0 10.0 0.00 0.43 0.17 60 1010.6
20260507111604 66 132 1.0 9.0 0.00 0.43 0.17 64 1010.7
20260507110004 65 186 2.0 11.0 0.00 0.43 0.17 66 1010.9
20260507104600 66 86 5.0 11.0 0.00 0.46 0.17 63 1011.0
20260507103126 66 178 4.0 10.0 0.00 0.46 0.17 68 1011.0
20260507101629 65 133 7.0 12.0 0.00 0.46 0.17 67 1011.1
20260507100142 64 113 3.0 12.0 0.00 0.46 0.17 69 1011.1
20260507093125 63 92 5.0 8.0 0.00 0.47 0.17 73 1011.1
20260507091558 62 215 2.0 9.0 0.00 0.47 0.17 71 1011.0
20260507090132 60 134 2.0 9.0 0.00 0.47 0.17 76 1011.0
20260507084557 60 144 4.0 9.0 0.00 0.49 0.17 77 1011.0
20260507083130 59 171 4.0 9.0 0.00 0.49 0.17 78 1010.9
20260507081558 58 123 0.0 5.0 0.00 0.49 0.17 77 1010.9
20260507080138 58 140 3.0 9.0 0.00 0.49 0.17 78 1010.9
20260507074600 57 171 2.0 6.0 0.00 0.51 0.17 83 1010.9
20260507073143 56 126 1.0 6.0 0.00 0.51 0.17 87 1010.8
20260507071606 55 91 2.0 4.0 0.00 0.51 0.17 90 1010.8
20260507070119 54 102 2.0 3.0 0.00 0.51 0.17 90 1010.8
20260507064616 52 19 0.0 3.0 0.00 0.54 0.17 92 1010.7
20260507063058 51 19 1.0 3.0 0.00 0.54 0.17 93 1010.7
20260507061559 51 5 1.0 4.0 0.00 0.54 0.17 94 1010.6
20260507060143 51 12 2.0 3.0 0.00 0.54 0.17 95 1010.4
20260507054608 50 12 1.0 3.0 0.00 0.56 0.17 96 1010.4
20260507053118 50 5 1.0 3.0 0.00 0.56 0.17 97 1010.2
20260507051558 49 5 1.0 3.0 0.00 0.56 0.17 97 1010.1
20260507050133 48 350 0.0 2.0 0.00 0.56 0.17 96 1009.9
20260507044558 47 350 2.0 4.0 0.00 0.56 0.17 96 1009.8
20260507043129 47 333 2.0 3.0 0.00 0.56 0.17 95 1009.6
20260507041608 48 324 0.0 4.0 0.00 0.56 0.17 95 1009.3
20260507040136 48 317 2.0 4.0 0.03 0.56 0.17 95 1009.2
20260507034659 49 330 1.0 3.0 0.05 0.59 0.17 95 1009.1
20260507033123 49 5 0.0 2.0 0.06 0.59 0.17 96 1009.1
20260507031604 49 5 0.0 1.0 0.08 0.59 0.17 95 1009.1
20260507030138 50 5 0.0 2.0 0.06 0.56 0.14 95 1009.1
20260507024607 50 5 1.0 3.0 0.05 0.54 0.12 96 1009.1
20260507023122 51 5 1.0 4.0 0.05 0.54 0.11 96 1009.2
20260507021559 51 289 1.0 3.0 0.05 0.52 0.09 96 1009.1
20260507020002 51 290 0.0 2.0 0.05 0.51 0.09 96 1009.1
20260507014608 50 290 1.0 3.0 0.04 0.51 0.07 96 1009.2